Regional Weather Roundup
Issued by NWS Little Rock, AR

Home | Current Version | Previous Version | Text Only | Print | Product List | Glossary On
Versions: 1 2 3 4 5 6 7 8 9 10 11 12 13 14 15 16 17 18 19 20 21 22 23 24 25 26 27 28 29 30 31 32 33 34 35 36 37 38 39 40 41 42 43 44 45 46 47 48 49 50
000
ASUS44 KLZK 301212
RWRLZK

WEATHER ROUNDUP FOR ARKANSAS
NATIONAL WEATHER SERVICE LITTLE ROCK AR
700 AM CDT THU MAR 30 2017

NOTE: "FAIR" INDICATES FEW OR NO CLOUDS BELOW 12,000 FEET WITH NO
SIGNIFICANT WEATHER AND/OR OBSTRUCTIONS TO VISIBILITY.

ARZ001-003-010-029-301300-
NORTHWEST ARKANSAS

CITY           SKY/WX    TMP DP  RH WIND       PRES   REMARKS
FAYETTEVILLE   CLOUDY    46  40  79 SW10      29.68R
6HR MIN TEMP:  45; 6HR MAX TEMP:  54;

FORT SMITH     CLOUDY    51  41  68 SW8       29.71S
6HR MIN TEMP:  50; 6HR MAX TEMP:  57;

HARRISON       PTCLDY    50  46  86 W8        29.63R
6HR MIN TEMP:  50; 6HR MAX TEMP:  62;

BENTONVILLE    CLOUDY    46  37  71 SW13G18   29.67R
6HR MIN TEMP:  46; 6HR MAX TEMP:  54;

ROGERS         CLOUDY    46  40  79 SW15      29.66S
6HR MIN TEMP:  46; 6HR MAX TEMP:  54;

SILOAM SPGS    CLOUDY    46  37  71 SW14      29.67R
6HR MIN TEMP:  46; 6HR MAX TEMP:  52;

HIGHFILL       CLOUDY    47  39  74 SW13G20   29.66R
6HR MIN TEMP:  47; 6HR MAX TEMP:  53;

SPRINGDALE     CLOUDY    46  41  81 SW12G23   29.68R
$$

ARZ004-005-016-301300-
NORTH CENTRAL ARKANSAS

CITY           SKY/WX    TMP DP  RH WIND       PRES   REMARKS
BATESVILLE     PTCLDY    61  57  88 S8        29.66R
6HR MIN TEMP:  61; 6HR MAX TEMP:  68; 6HR PCP:  0.12;

FLIPPIN        CLOUDY    57  48  72 SW8       29.60R
6HR MIN TEMP:  57; 6HR MAX TEMP:  64;

MTN HOME       CLOUDY    58  56  93 W3        29.61F
6HR MIN TEMP:  56; 6HR MAX TEMP:  63;

$$

ARZ040-041-301300-
WEST CENTRAL ARKANSAS

CITY           SKY/WX    TMP DP  RH WIND       PRES   REMARKS
MENA           CLOUDY    52  46  82 W6        29.74S
MOUNT IDA      CLEAR     51  46  83 VRB5      29.70R
6HR MIN TEMP:  51; 6HR MAX TEMP:  61;

$$

ARZ009-017-025-026-028-301300-
NORTHEAST ARKANSAS

CITY           SKY/WX    TMP DP  RH WIND       PRES   REMARKS
JONESBORO      CLOUDY    65  59  81 S18       29.66S
6HR MIN TEMP:  64; 6HR MAX TEMP:  70; 6HR PCP:  0.01;

NEWPORT        CLOUDY    64  61  90 S14       29.66S
6HR MIN TEMP:  64; 6HR MAX TEMP:  70;

WALNUT RIDGE   CLOUDY    64  57  77 S18       29.63F
6HR MIN TEMP:  64; 6HR MAX TEMP:  70; 6HR PCP:  0.03;

BLYTHEVILLE    CLOUDY    65  59  81 S13       29.68S
6HR MIN TEMP:  64; 6HR MAX TEMP:  72; 6HR PCP:  0.01;

$$

ARZ022-023-033-042-044-301300-
CENTRAL ARKANSAS

CITY           SKY/WX    TMP DP  RH WIND       PRES   REMARKS
LITTLE ROCK    CLOUDY    61  61 100 S12       29.70R
6HR MIN TEMP:  60; 6HR MAX TEMP:  67; 6HR PCP: TRACE;

N LITTLE ROCK    N/A     61  59  92 S7        29.68R
6HR MIN TEMP:  61; 6HR MAX TEMP:  66;

JACKSONVILLE   CLOUDY    63  61  93 S12       29.67S
6HR MIN TEMP:  62; 6HR MAX TEMP:  67; 6HR PCP:  0.04;

CONWAY           N/A     57  52  82 W12       29.68R
SEARCY         MOCLDY    63  62  97 S13       29.69R
6HR MIN TEMP:  62; 6HR MAX TEMP:  69; 6HR PCP:  0.21;

HOT SPRINGS    CLOUDY    57  53  86 W12       29.72R
6HR MIN TEMP:  57; 6HR MAX TEMP:  66;

$$

ARZ036-301300-
EAST ARKANSAS

CITY           SKY/WX    TMP DP  RH WIND       PRES   REMARKS
$$

ARZ050-053-066-070-073-301300-
SOUTHWEST ARKANSAS

CITY           SKY/WX    TMP DP  RH WIND       PRES   REMARKS
ARKADELPHIA    PTSUNNY   55  50  83 W8G17     29.75R
6HR MIN TEMP:  55; 6HR MAX TEMP:  66;

CAMDEN         CLEAR     57  46  67 SW7       29.77R
TEXARKANA      CLEAR     51  47  86 SW10      29.80R
6HR MIN TEMP:  51; 6HR MAX TEMP:  62;

EL DORADO      PTCLDY    56  51  84 W6        29.78R
6HR MIN TEMP:  56; 6HR MAX TEMP:  63; 6HR PCP:  0.08;

DE QUEEN       CLEAR     49  45  86 W9        29.76R
6HR MIN TEMP:  48; 6HR MAX TEMP:  60;

$$

ARZ056-057-069-301300-
SOUTHEAST ARKANSAS

CITY           SKY/WX    TMP DP  RH WIND       PRES   REMARKS
PINE BLUFF     CLOUDY    64  61  90 SW10      29.72R
6HR MIN TEMP:  63; 6HR MAX TEMP:  67;

STUTTGART      CLOUDY    66  55  68 S17G23    29.72R
6HR MIN TEMP:  64; 6HR MAX TEMP:  70;

MONTICELLO     CLOUDY    65  62  90 SW12      29.74R
6HR MIN TEMP:  65; 6HR MAX TEMP:  67; 6HR PCP:  0.53;


$$





USA.gov is the U.S. government's official web portal to all federal, state and local government web resources and services.